| time (UTC) | temp F | wind direction | speed MPH | gust MPH | rain 1hr in | rain 24hr in | rain mn in | humidity % | barometer mb |
| 20260508225036 | 56 | 0.0 | 0.0 | 0.00 | 0.00 | 0.00 | 39 | 1006.7 | |
| 20260508224516 | 57 | 0.0 | 0.0 | 0.00 | 0.00 | 0.00 | 38 | 1006.8 | |
| 20260508224015 | 57 | 0.0 | 0.0 | 0.00 | 0.00 | 0.00 | 38 | 1006.7 | |
| 20260508223516 | 57 | 0.0 | 0.0 | 0.00 | 0.00 | 0.00 | 37 | 1006.7 | |
| 20260508223015 | 57 | 0.0 | 1.0 | 0.00 | 0.00 | 0.00 | 38 | 1006.6 | |
| 20260508222515 | 57 | 289 | 0.0 | 1.0 | 0.00 | 0.00 | 0.00 | 40 | 1006.6 |
| 20260508222015 | 57 | 0.0 | 0.0 | 0.00 | 0.00 | 0.00 | 39 | 1006.6 | |
| 20260508221515 | 57 | 0.0 | 0.0 | 0.00 | 0.00 | 0.00 | 39 | 1006.5 | |
| 20260508221015 | 57 | 0.0 | 0.0 | 0.00 | 0.00 | 0.00 | 39 | 1006.5 | |
| 20260508220516 | 57 | 0.0 | 7.0 | 0.00 | 0.00 | 0.00 | 39 | 1006.5 | |
| 20260508220015 | 57 | 225 | 1.0 | 9.0 | 0.00 | 0.00 | 0.00 | 39 | 1006.5 |
| 20260508215516 | 57 | 271 | 2.0 | 9.0 | 0.00 | 0.00 | 0.00 | 40 | 1006.5 |
| 20260508215015 | 57 | 0.0 | 0.0 | 0.00 | 0.00 | 0.00 | 39 | 1006.5 | |
| 20260508214515 | 57 | 0.0 | 0.0 | 0.00 | 0.00 | 0.00 | 40 | 1006.5 | |
| 20260508214016 | 57 | 0.0 | 0.0 | 0.00 | 0.00 | 0.00 | 40 | 1006.4 | |
| 20260508213515 | 57 | 0.0 | 1.0 | 0.00 | 0.00 | 0.00 | 39 | 1006.5 | |
| 20260508213015 | 57 | 178 | 0.0 | 1.0 | 0.00 | 0.00 | 0.00 | 38 | 1006.4 |
| 20260508212515 | 57 | 276 | 0.0 | 1.0 | 0.00 | 0.00 | 0.00 | 38 | 1006.4 |
| 20260508212035 | 58 | 281 | 0.0 | 1.0 | 0.00 | 0.00 | 0.00 | 38 | 1006.4 |
| 20260508211516 | 58 | 226 | 0.0 | 1.0 | 0.00 | 0.00 | 0.00 | 37 | 1006.3 |
| 20260508211015 | 58 | 260 | 0.0 | 1.0 | 0.00 | 0.00 | 0.00 | 36 | 1006.3 |
| 20260508210515 | 59 | 0.0 | 0.0 | 0.00 | 0.00 | 0.00 | 36 | 1006.2 | |
| 20260508210015 | 59 | 0.0 | 0.0 | 0.00 | 0.00 | 0.00 | 38 | 1006.2 | |
| 20260508205535 | 59 | 0.0 | 0.0 | 0.00 | 0.00 | 0.00 | 37 | 1006.2 | |
| 20260508205015 | 59 | 0.0 | 1.0 | 0.00 | 0.00 | 0.00 | 37 | 1006.1 | |
| 20260508204515 | 59 | 268 | 0.0 | 1.0 | 0.00 | 0.00 | 0.00 | 36 | 1006.1 |
| 20260508204015 | 59 | 0.0 | 2.0 | 0.00 | 0.00 | 0.00 | 37 | 1006.0 | |
| 20260508203515 | 59 | 221 | 0.0 | 7.0 | 0.00 | 0.00 | 0.00 | 36 | 1006.0 |
| 20260508203015 | 59 | 225 | 0.0 | 9.0 | 0.00 | 0.00 | 0.00 | 36 | 1006.1 |
| 20260508202515 | 59 | 201 | 0.0 | 9.0 | 0.00 | 0.00 | 0.00 | 37 | 1006.0 |
| 20260508202015 | 58 | 0.0 | 0.0 | 0.00 | 0.00 | 0.00 | 40 | 1006.0 | |
| 20260508201515 | 58 | 0.0 | 0.0 | 0.00 | 0.00 | 0.00 | 39 | 1005.9 | |
| 20260508201015 | 58 | 0.0 | 1.0 | 0.00 | 0.00 | 0.00 | 37 | 1006.0 | |
| 20260508200515 | 58 | 280 | 0.0 | 1.0 | 0.00 | 0.00 | 0.00 | 39 | 1006.0 |
| 20260508200035 | 58 | 224 | 0.0 | 1.0 | 0.00 | 0.00 | 0.00 | 40 | 1006.0 |
| 20260508195515 | 58 | 0.0 | 0.0 | 0.00 | 0.00 | 0.00 | 39 | 1006.0 | |
| 20260508195015 | 58 | 0.0 | 0.0 | 0.00 | 0.00 | 0.00 | 38 | 1006.0 | |
| 20260508194515 | 58 | 0.0 | 1.0 | 0.00 | 0.00 | 0.00 | 37 | 1006.1 | |
| 20260508194015 | 59 | 264 | 0.0 | 1.0 | 0.00 | 0.00 | 0.00 | 38 | 1006.2 |
| 20260508193515 | 59 | 340 | 0.0 | 1.0 | 0.00 | 0.00 | 0.00 | 39 | 1006.1 |
| 20260508193015 | 58 | 333 | 0.0 | 7.0 | 0.00 | 0.00 | 0.00 | 41 | 1006.1 |
| 20260508192535 | 59 | 203 | 1.0 | 7.0 | 0.00 | 0.00 | 0.00 | 39 | 1006.2 |
| 20260508192015 | 58 | 297 | 0.0 | 5.0 | 0.00 | 0.00 | 0.00 | 40 | 1006.3 |
| 20260508191515 | 58 | 316 | 0.0 | 1.0 | 0.00 | 0.00 | 0.00 | 40 | 1006.4 |
| 20260508191015 | 58 | 0.0 | 12.0 | 0.00 | 0.00 | 0.00 | 42 | 1006.4 | |
| 20260508190515 | 58 | 275 | 1.0 | 12.0 | 0.00 | 0.00 | 0.00 | 41 | 1006.4 |
| 20260508190015 | 58 | 177 | 0.0 | 11.0 | 0.00 | 0.00 | 0.00 | 39 | 1006.3 |
| 20260508185515 | 58 | 306 | 1.0 | 11.0 | 0.00 | 0.00 | 0.00 | 41 | 1006.3 |
| 20260508185015 | 58 | 181 | 0.0 | 1.0 | 0.00 | 0.00 | 0.00 | 40 | 1006.3 |
| 20260508184515 | 58 | 0.0 | 0.0 | 0.00 | 0.00 | 0.00 | 38 | 1006.4 | |
| 20260508184015 | 58 | 0.0 | 0.0 | 0.00 | 0.00 | 0.00 | 40 | 1006.3 | |
| 20260508183515 | 58 | 0.0 | 3.0 | 0.00 | 0.00 | 0.00 | 39 | 1006.3 | |
| 20260508183015 | 58 | 329 | 0.0 | 3.0 | 0.00 | 0.00 | 0.00 | 37 | 1006.2 |
| 20260508182515 | 59 | 0.0 | 0.0 | 0.00 | 0.00 | 0.00 | 37 | 1006.1 | |
| 20260508182015 | 59 | 0.0 | 1.0 | 0.00 | 0.00 | 0.00 | 38 | 1006.2 | |
| 20260508181515 | 59 | 294 | 0.0 | 1.0 | 0.00 | 0.00 | 0.00 | 36 | 1006.1 |
| 20260508181015 | 59 | 135 | 0.0 | 1.0 | 0.00 | 0.00 | 0.00 | 38 | 1006.1 |
| 20260508180535 | 58 | 0.0 | 0.0 | 0.00 | 0.00 | 0.00 | 39 | 1006.1 | |
| 20260508180015 | 58 | 0.0 | 1.0 | 0.00 | 0.00 | 0.00 | 38 | 1006.1 | |
| 20260508175515 | 58 | 221 | 0.0 | 1.0 | 0.00 | 0.00 | 0.00 | 37 | 1006.1 |
| 20260508175015 | 58 | 311 | 0.0 | 1.0 | 0.00 | 0.00 | 0.00 | 38 | 1006.1 |
| 20260508174515 | 58 | 0.0 | 0.0 | 0.00 | 0.00 | 0.00 | 41 | 1006.1 | |
| 20260508174015 | 57 | 0.0 | 1.0 | 0.00 | 0.00 | 0.00 | 41 | 1006.2 | |
| 20260508173515 | 57 | 213 | 0.0 | 1.0 | 0.00 | 0.00 | 0.00 | 40 | 1006.2 |
| 20260508173015 | 57 | 336 | 0.0 | 1.0 | 0.00 | 0.00 | 0.00 | 41 | 1006.2 |
| 20260508172515 | 57 | 0.0 | 0.0 | 0.00 | 0.00 | 0.00 | 41 | 1006.3 | |
| 20260508172015 | 58 | 0.0 | 0.0 | 0.00 | 0.00 | 0.00 | 40 | 1006.2 | |
| 20260508171515 | 58 | 0.0 | 2.0 | 0.00 | 0.00 | 0.00 | 41 | 1006.2 | |
| 20260508171015 | 58 | 174 | 0.0 | 2.0 | 0.00 | 0.00 | 0.00 | 41 | 1006.2 |
| 20260508170515 | 59 | 157 | 0.0 | 2.0 | 0.00 | 0.00 | 0.00 | 40 | 1006.2 |
| 20260508170015 | 59 | 207 | 0.0 | 2.0 | 0.00 | 0.00 | 0.00 | 42 | 1006.1 |
| 20260508165515 | 58 | 193 | 0.0 | 8.0 | 0.00 | 0.00 | 0.00 | 42 | 1006.2 |
| 20260508165015 | 57 | 252 | 1.0 | 8.0 | 0.00 | 0.00 | 0.00 | 42 | 1006.2 |
| 20260508164535 | 57 | 250 | 0.0 | 9.0 | 0.00 | 0.00 | 0.00 | 42 | 1006.3 |
| 20260508164015 | 57 | 228 | 1.0 | 12.0 | 0.00 | 0.00 | 0.00 | 42 | 1006.3 |
| 20260508163515 | 57 | 277 | 2.0 | 12.0 | 0.00 | 0.00 | 0.00 | 41 | 1006.3 |
| 20260508163015 | 57 | 223 | 1.0 | 10.0 | 0.00 | 0.00 | 0.00 | 40 | 1006.3 |
| 20260508162535 | 58 | 191 | 0.0 | 1.0 | 0.00 | 0.00 | 0.00 | 42 | 1006.2 |
| 20260508162015 | 58 | 0.0 | 11.0 | 0.00 | 0.00 | 0.00 | 41 | 1006.2 | |
| 20260508161515 | 58 | 270 | 0.0 | 11.0 | 0.00 | 0.00 | 0.00 | 41 | 1006.2 |
| 20260508161015 | 58 | 70 | 0.0 | 1.0 | 0.00 | 0.00 | 0.00 | 42 | 1006.2 |
| 20260508160515 | 57 | 0.0 | 3.0 | 0.00 | 0.00 | 0.00 | 44 | 1006.2 | |
| 20260508160015 | 57 | 39 | 0.0 | 6.0 | 0.00 | 0.00 | 0.00 | 44 | 1006.2 |
| 20260508155517 | 56 | 207 | 1.0 | 6.0 | 0.00 | 0.00 | 0.00 | 45 | 1006.4 |
| 20260508155037 | 56 | 105 | 0.0 | 1.0 | 0.00 | 0.00 | 0.00 | 42 | 1006.4 |
| 20260508154537 | 57 | 0.0 | 1.0 | 0.00 | 0.00 | 0.00 | 41 | 1006.6 | |
| 20260508154017 | 57 | 180 | 0.0 | 6.0 | 0.00 | 0.00 | 0.00 | 42 | 1006.6 |
| 20260508153516 | 58 | 244 | 0.0 | 6.0 | 0.00 | 0.00 | 0.00 | 42 | 1006.7 |
| 20260508153036 | 58 | 296 | 0.0 | 1.0 | 0.00 | 0.00 | 0.00 | 44 | 1006.7 |
| 20260508152516 | 58 | 0.0 | 1.0 | 0.00 | 0.00 | 0.00 | 42 | 1006.7 | |
| 20260508152016 | 58 | 232 | 0.0 | 1.0 | 0.00 | 0.00 | 0.00 | 43 | 1006.7 |
| 20260508151537 | 58 | 0.0 | 11.0 | 0.00 | 0.00 | 0.00 | 43 | 1006.7 | |
| 20260508151017 | 57 | 319 | 1.0 | 11.0 | 0.00 | 0.00 | 0.00 | 44 | 1006.7 |
| 20260508150516 | 57 | 282 | 0.0 | 8.0 | 0.00 | 0.00 | 0.00 | 44 | 1006.7 |
| 20260508150015 | 57 | 0.0 | 1.0 | 0.00 | 0.00 | 0.00 | 44 | 1006.7 | |
| 20260508145516 | 57 | 355 | 0.0 | 8.0 | 0.00 | 0.00 | 0.00 | 44 | 1006.8 |
| 20260508145017 | 56 | 257 | 1.0 | 8.0 | 0.00 | 0.00 | 0.00 | 48 | 1006.8 |
| 20260508144517 | 55 | 303 | 0.0 | 2.0 | 0.00 | 0.00 | 0.00 | 48 | 1006.9 |
| 20260508144016 | 54 | 0.0 | 0.0 | 0.00 | 0.00 | 0.00 | 46 | 1007.0 | |
| 20260508143537 | 54 | 0.0 | 1.0 | 0.00 | 0.00 | 0.00 | 44 | 1007.1 | |
| 20260508143016 | 54 | 230 | 0.0 | 1.0 | 0.00 | 0.00 | 0.00 | 44 | 1007.1 |
| 20260508142517 | 54 | 0.0 | 0.0 | 0.00 | 0.00 | 0.00 | 46 | 1007.1 | |
| 20260508142016 | 53 | 0.0 | 0.0 | 0.00 | 0.00 | 0.00 | 47 | 1007.1 | |
| 20260508141516 | 53 | 0.0 | 0.0 | 0.00 | 0.00 | 0.00 | 47 | 1007.1 | |
| 20260508141017 | 53 | 0.0 | 0.0 | 0.00 | 0.00 | 0.00 | 48 | 1007.2 | |
| 20260508140516 | 53 | 0.0 | 0.0 | 0.00 | 0.00 | 0.00 | 47 | 1007.2 | |
| 20260508140016 | 53 | 0.0 | 0.0 | 0.00 | 0.00 | 0.00 | 47 | 1007.2 | |
| 20260508135516 | 53 | 0.0 | 0.0 | 0.00 | 0.00 | 0.00 | 47 | 1007.3 | |
| 20260508135016 | 53 | 0.0 | 1.0 | 0.00 | 0.00 | 0.00 | 47 | 1007.3 | |
| 20260508134516 | 53 | 240 | 0.0 | 1.0 | 0.00 | 0.00 | 0.00 | 47 | 1007.3 |
| 20260508134036 | 53 | 290 | 0.0 | 1.0 | 0.00 | 0.00 | 0.00 | 48 | 1007.3 |
| 20260508133536 | 52 | 229 | 0.0 | 2.0 | 0.00 | 0.00 | 0.00 | 47 | 1007.3 |
| 20260508133016 | 52 | 201 | 0.0 | 2.0 | 0.00 | 0.00 | 0.00 | 47 | 1007.3 |
| 20260508132516 | 53 | 0.0 | 0.0 | 0.00 | 0.00 | 0.00 | 47 | 1007.3 | |
| 20260508132036 | 53 | 0.0 | 1.0 | 0.00 | 0.00 | 0.00 | 48 | 1007.4 | |
| 20260508131536 | 52 | 308 | 0.0 | 8.0 | 0.00 | 0.00 | 0.00 | 49 | 1007.3 |
| 20260508131016 | 52 | 290 | 0.0 | 8.0 | 0.00 | 0.00 | 0.00 | 49 | 1007.4 |
| 20260508130517 | 52 | 237 | 0.0 | 8.0 | 0.00 | 0.00 | 0.00 | 47 | 1007.4 |
| 20260508130016 | 52 | 300 | 0.0 | 11.0 | 0.00 | 0.00 | 0.00 | 48 | 1007.4 |
| 20260508125516 | 51 | 238 | 1.0 | 11.0 | 0.00 | 0.00 | 0.00 | 49 | 1007.3 |
| 20260508125016 | 51 | 284 | 0.0 | 9.0 | 0.00 | 0.00 | 0.00 | 49 | 1007.3 |
| 20260508124516 | 51 | 275 | 0.0 | 1.0 | 0.00 | 0.00 | 0.00 | 52 | 1007.3 |
| 20260508124016 | 50 | 301 | 0.0 | 1.0 | 0.00 | 0.00 | 0.00 | 54 | 1007.2 |
| 20260508123516 | 50 | 314 | 0.0 | 1.0 | 0.00 | 0.00 | 0.00 | 54 | 1007.3 |
| 20260508123016 | 49 | 0.0 | 1.0 | 0.00 | 0.00 | 0.00 | 56 | 1007.3 | |
| 20260508122516 | 48 | 34 | 0.0 | 1.0 | 0.00 | 0.00 | 0.00 | 57 | 1007.3 |
| 20260508122036 | 48 | 0.0 | 0.0 | 0.00 | 0.00 | 0.00 | 59 | 1007.4 | |
| 20260508121516 | 47 | 0.0 | 0.0 | 0.00 | 0.00 | 0.00 | 60 | 1007.3 | |
| 20260508121036 | 47 | 0.0 | 1.0 | 0.00 | 0.00 | 0.00 | 61 | 1007.3 | |
| 20260508120516 | 46 | 263 | 0.0 | 8.0 | 0.00 | 0.00 | 0.00 | 62 | 1007.4 |
| 20260508120056 | 46 | 272 | 0.0 | 8.0 | 0.00 | 0.00 | 0.00 | 62 | 1007.4 |
| 20260508115516 | 46 | 0.0 | 0.0 | 0.00 | 0.00 | 0.00 | 62 | 1007.5 | |
| 20260508115016 | 45 | 0.0 | 2.0 | 0.00 | 0.00 | 0.00 | 62 | 1007.5 | |
| 20260508114516 | 45 | 328 | 0.0 | 2.0 | 0.00 | 0.00 | 0.00 | 63 | 1007.4 |
| 20260508114016 | 44 | 0.0 | 0.0 | 0.00 | 0.00 | 0.00 | 63 | 1007.3 | |
| 20260508113516 | 44 | 0.0 | 1.0 | 0.00 | 0.00 | 0.00 | 64 | 1007.3 | |
| 20260508113016 | 44 | 262 | 0.0 | 1.0 | 0.00 | 0.00 | 0.00 | 65 | 1007.2 |
| 20260508112516 | 43 | 0.0 | 0.0 | 0.00 | 0.00 | 0.00 | 65 | 1007.2 | |
| 20260508112016 | 43 | 0.0 | 0.0 | 0.00 | 0.00 | 0.00 | 66 | 1007.2 | |
| 20260508111516 | 42 | 0.0 | 0.0 | 0.00 | 0.00 | 0.00 | 67 | 1007.2 | |
| 20260508111016 | 42 | 0.0 | 0.0 | 0.00 | 0.00 | 0.00 | 67 | 1007.2 | |
| 20260508110516 | 42 | 0.0 | 0.0 | 0.00 | 0.00 | 0.00 | 67 | 1007.2 | |
| 20260508110016 | 42 | 0.0 | 0.0 | 0.00 | 0.00 | 0.00 | 68 | 1007.1 | |
| 20260508105516 | 41 | 0.0 | 0.0 | 0.00 | 0.00 | 0.00 | 68 | 1007.1 | |
| 20260508105016 | 41 | 0.0 | 0.0 | 0.00 | 0.00 | 0.00 | 68 | 1007.0 | |
| 20260508104536 | 41 | 0.0 | 0.0 | 0.00 | 0.00 | 0.00 | 69 | 1007.0 | |
| 20260508104036 | 40 | 0.0 | 0.0 | 0.00 | 0.00 | 0.00 | 70 | 1007.0 | |
| 20260508103516 | 40 | 0.0 | 0.0 | 0.00 | 0.00 | 0.00 | 71 | 1006.9 | |
| 20260508103016 | 39 | 0.0 | 0.0 | 0.00 | 0.00 | 0.00 | 72 | 1006.9 | |
| 20260508102516 | 39 | 0.0 | 0.0 | 0.00 | 0.00 | 0.00 | 72 | 1006.8 | |
| 20260508102016 | 39 | 0.0 | 0.0 | 0.00 | 0.00 | 0.00 | 73 | 1006.7 | |
| 20260508101536 | 38 | 0.0 | 0.0 | 0.00 | 0.00 | 0.00 | 74 | 1006.6 | |
| 20260508101016 | 38 | 0.0 | 0.0 | 0.00 | 0.00 | 0.00 | 74 | 1006.6 | |
| 20260508100516 | 38 | 0.0 | 0.0 | 0.00 | 0.00 | 0.00 | 76 | 1006.6 | |
| 20260508100016 | 38 | 0.0 | 0.0 | 0.00 | 0.00 | 0.00 | 76 | 1006.4 | |
| 20260508095516 | 38 | 0.0 | 0.0 | 0.00 | 0.00 | 0.00 | 77 | 1006.4 | |
| 20260508095016 | 38 | 0.0 | 0.0 | 0.00 | 0.00 | 0.00 | 78 | 1006.4 | |
| 20260508094516 | 37 | 0.0 | 0.0 | 0.00 | 0.00 | 0.00 | 78 | 1006.4 | |
| 20260508094016 | 37 | 0.0 | 0.0 | 0.00 | 0.00 | 0.00 | 78 | 1006.3 | |
| 20260508093516 | 37 | 0.0 | 0.0 | 0.00 | 0.00 | 0.00 | 79 | 1006.3 | |
| 20260508093016 | 37 | 0.0 | 0.0 | 0.00 | 0.00 | 0.00 | 80 | 1006.3 | |
| 20260508092536 | 37 | 0.0 | 0.0 | 0.00 | 0.00 | 0.00 | 80 | 1006.3 | |
| 20260508092016 | 37 | 0.0 | 0.0 | 0.00 | 0.00 | 0.00 | 81 | 1006.3 | |
| 20260508091516 | 37 | 0.0 | 0.0 | 0.00 | 0.00 | 0.00 | 81 | 1006.3 | |
| 20260508091016 | 37 | 0.0 | 0.0 | 0.00 | 0.00 | 0.00 | 80 | 1006.2 | |
| 20260508090516 | 37 | 0.0 | 0.0 | 0.00 | 0.00 | 0.00 | 80 | 1006.2 | |
| 20260508090016 | 37 | 0.0 | 0.0 | 0.00 | 0.00 | 0.00 | 79 | 1006.1 | |
| 20260508085516 | 37 | 0.0 | 0.0 | 0.00 | 0.00 | 0.00 | 78 | 1006.1 | |
| 20260508085016 | 37 | 0.0 | 0.0 | 0.00 | 0.00 | 0.00 | 79 | 1006.1 | |
| 20260508084536 | 37 | 0.0 | 0.0 | 0.00 | 0.00 | 0.00 | 78 | 1006.2 | |
| 20260508084015 | 37 | 0.0 | 0.0 | 0.00 | 0.00 | 0.00 | 78 | 1006.2 | |
| 20260508083516 | 38 | 0.0 | 0.0 | 0.00 | 0.00 | 0.00 | 77 | 1006.2 | |
| 20260508083015 | 38 | 0.0 | 0.0 | 0.00 | 0.00 | 0.00 | 77 | 1006.2 | |
| 20260508082516 | 38 | 0.0 | 0.0 | 0.00 | 0.00 | 0.00 | 77 | 1006.1 | |
| 20260508082036 | 38 | 0.0 | 0.0 | 0.00 | 0.00 | 0.00 | 77 | 1006.0 | |
| 20260508081516 | 37 | 0.0 | 0.0 | 0.00 | 0.00 | 0.00 | 78 | 1006.0 | |
| 20260508081036 | 37 | 0.0 | 0.0 | 0.00 | 0.00 | 0.00 | 78 | 1005.9 | |
| 20260508080516 | 37 | 0.0 | 0.0 | 0.00 | 0.00 | 0.00 | 78 | 1005.9 | |
| 20260508080015 | 37 | 0.0 | 0.0 | 0.00 | 0.00 | 0.00 | 79 | 1005.8 | |
| 20260508075515 | 37 | 0.0 | 0.0 | 0.00 | 0.00 | 0.00 | 80 | 1005.7 | |
| 20260508075036 | 37 | 0.0 | 0.0 | 0.00 | 0.00 | 0.00 | 82 | 1005.6 | |
| 20260508074516 | 37 | 0.0 | 0.0 | 0.00 | 0.00 | 0.00 | 82 | 1005.4 | |
| 20260508074016 | 38 | 0.0 | 0.0 | 0.00 | 0.00 | 0.00 | 81 | 1005.3 | |
| 20260508073515 | 38 | 0.0 | 0.0 | 0.00 | 0.00 | 0.00 | 81 | 1005.3 | |
| 20260508073015 | 38 | 0.0 | 0.0 | 0.00 | 0.00 | 0.00 | 80 | 1005.3 | |
| 20260508072515 | 38 | 0.0 | 0.0 | 0.00 | 0.00 | 0.00 | 80 | 1005.2 | |
| 20260508072055 | 38 | 0.0 | 0.0 | 0.00 | 0.00 | 0.00 | 80 | 1005.1 | |
| 20260508071516 | 38 | 0.0 | 0.0 | 0.00 | 0.00 | 0.00 | 79 | 1005.1 | |
| 20260508071015 | 38 | 0.0 | 0.0 | 0.00 | 0.00 | 0.00 | 78 | 1005.1 | |
| 20260508070515 | 39 | 0.0 | 0.0 | 0.00 | 0.00 | 0.00 | 78 | 1005.1 | |
| 20260508070036 | 39 | 0.0 | 0.0 | 0.00 | 0.00 | 0.00 | 78 | 1005.0 | |
| 20260508065535 | 39 | 0.0 | 0.0 | 0.00 | 0.00 | 0.00 | 78 | 1005.0 | |
| 20260508065016 | 39 | 0.0 | 0.0 | 0.00 | 0.00 | 0.00 | 77 | 1005.1 | |
| 20260508064516 | 39 | 0.0 | 0.0 | 0.00 | 0.00 | 0.00 | 76 | 1005.1 | |
| 20260508064015 | 39 | 0.0 | 0.0 | 0.00 | 0.00 | 0.00 | 76 | 1005.1 | |
| 20260508063515 | 40 | 0.0 | 0.0 | 0.00 | 0.00 | 0.00 | 77 | 1005.2 | |
| 20260508063016 | 40 | 0.0 | 0.0 | 0.00 | 0.00 | 0.00 | 77 | 1005.2 | |
| 20260508062515 | 40 | 0.0 | 0.0 | 0.00 | 0.00 | 0.00 | 76 | 1005.2 | |
| 20260508062015 | 40 | 0.0 | 0.0 | 0.00 | 0.00 | 0.00 | 76 | 1005.2 | |
| 20260508061515 | 40 | 0.0 | 0.0 | 0.00 | 0.00 | 0.00 | 76 | 1005.2 | |
| 20260508061015 | 40 | 0.0 | 0.0 | 0.00 | 0.00 | 0.00 | 75 | 1005.2 | |
| 20260508060535 | 41 | 0.0 | 0.0 | 0.00 | 0.00 | 0.00 | 75 | 1005.3 | |
| 20260508060015 | 41 | 0.0 | 0.0 | 0.00 | 0.00 | 0.00 | 75 | 1005.3 | |
| 20260508055515 | 41 | 0.0 | 0.0 | 0.00 | 0.00 | 0.00 | 74 | 1005.3 | |
| 20260508055015 | 41 | 0.0 | 0.0 | 0.00 | 0.00 | 0.00 | 73 | 1005.3 | |
| 20260508054515 | 41 | 0.0 | 0.0 | 0.00 | 0.00 | 0.00 | 74 | 1005.4 | |
| 20260508054015 | 41 | 0.0 | 0.0 | 0.00 | 0.00 | 0.00 | 74 | 1005.5 | |
| 20260508053515 | 41 | 0.0 | 0.0 | 0.00 | 0.00 | 0.00 | 74 | 1005.6 | |
| 20260508053015 | 42 | 0.0 | 0.0 | 0.00 | 0.00 | 0.00 | 73 | 1005.6 | |
| 20260508052515 | 42 | 0.0 | 0.0 | 0.00 | 0.00 | 0.00 | 73 | 1005.5 | |
| 20260508052015 | 42 | 0.0 | 0.0 | 0.00 | 0.00 | 0.00 | 72 | 1005.6 | |
| 20260508051515 | 42 | 0.0 | 0.0 | 0.00 | 0.00 | 0.00 | 71 | 1005.6 | |
| 20260508051015 | 42 | 0.0 | 0.0 | 0.00 | 0.00 | 0.00 | 71 | 1005.7 | |
| 20260508050535 | 42 | 0.0 | 0.0 | 0.00 | 0.00 | 0.00 | 70 | 1005.8 | |
| 20260508050015 | 43 | 0.0 | 0.0 | 0.00 | 0.00 | 0.00 | 69 | 1005.8 | |
| 20260508045515 | 43 | 0.0 | 0.0 | 0.00 | 0.00 | 0.00 | 69 | 1005.8 | |
| 20260508045015 | 43 | 0.0 | 0.0 | 0.00 | 0.00 | 0.00 | 69 | 1005.9 | |
| 20260508044515 | 43 | 0.0 | 0.0 | 0.00 | 0.00 | 0.00 | 69 | 1005.8 | |
| 20260508044015 | 43 | 0.0 | 0.0 | 0.00 | 0.00 | 0.00 | 68 | 1005.8 | |
| 20260508043515 | 43 | 0.0 | 0.0 | 0.00 | 0.00 | 0.00 | 67 | 1005.9 | |
| 20260508043015 | 44 | 0.0 | 0.0 | 0.00 | 0.00 | 0.00 | 67 | 1005.9 | |
| 20260508042515 | 44 | 0.0 | 0.0 | 0.00 | 0.00 | 0.00 | 67 | 1005.9 | |
| 20260508042035 | 44 | 0.0 | 0.0 | 0.00 | 0.01 | 0.00 | 66 | 1006.0 | |
| 20260508041515 | 44 | 0.0 | 0.0 | 0.00 | 0.01 | 0.00 | 66 | 1006.0 | |
| 20260508041015 | 44 | 0.0 | 0.0 | 0.00 | 0.01 | 0.00 | 66 | 1006.0 | |
| 20260508040515 | 44 | 0.0 | 0.0 | 0.00 | 0.01 | 0.00 | 68 | 1005.9 | |
| 20260508040135 | 44 | 0.0 | 0.0 | 0.00 | 0.01 | 0.01 | 67 | 1005.8 | |
| 20260508035514 | 44 | 0.0 | 0.0 | 0.00 | 0.01 | 0.01 | 66 | 1005.8 | |
| 20260508035015 | 45 | 0.0 | 0.0 | 0.00 | 0.01 | 0.01 | 65 | 1005.8 | |
| 20260508034514 | 45 | 0.0 | 0.0 | 0.00 | 0.01 | 0.01 | 65 | 1005.8 | |
| 20260508034035 | 45 | 0.0 | 0.0 | 0.00 | 0.01 | 0.01 | 66 | 1005.9 | |
| 20260508033517 | 45 | 0.0 | 0.0 | 0.00 | 0.01 | 0.01 | 65 | 1005.9 | |
| 20260508033017 | 45 | 0.0 | 0.0 | 0.00 | 0.01 | 0.01 | 65 | 1005.9 | |
| 20260508032516 | 45 | 0.0 | 0.0 | 0.00 | 0.01 | 0.01 | 67 | 1005.8 | |
| 20260508032017 | 45 | 0.0 | 0.0 | 0.00 | 0.01 | 0.01 | 66 | 1005.8 | |
| 20260508031517 | 46 | 0.0 | 0.0 | 0.00 | 0.01 | 0.01 | 64 | 1005.8 | |
| 20260508031017 | 46 | 0.0 | 0.0 | 0.00 | 0.01 | 0.01 | 65 | 1005.8 | |
| 20260508030517 | 46 | 0.0 | 0.0 | 0.00 | 0.01 | 0.01 | 63 | 1005.8 | |
| 20260508030017 | 46 | 0.0 | 0.0 | 0.00 | 0.01 | 0.01 | 64 | 1005.7 | |
| 20260508025517 | 46 | 0.0 | 0.0 | 0.00 | 0.01 | 0.01 | 62 | 1005.7 | |
| 20260508025017 | 46 | 0.0 | 0.0 | 0.00 | 0.01 | 0.01 | 62 | 1005.7 | |
| 20260508024517 | 46 | 0.0 | 0.0 | 0.00 | 0.01 | 0.01 | 62 | 1005.7 | |
| 20260508024016 | 46 | 0.0 | 0.0 | 0.00 | 0.01 | 0.01 | 62 | 1005.7 | |
| 20260508023516 | 46 | 0.0 | 0.0 | 0.00 | 0.01 | 0.01 | 63 | 1005.7 | |
| 20260508023037 | 46 | 0.0 | 0.0 | 0.00 | 0.01 | 0.01 | 63 | 1005.7 | |
| 20260508022517 | 47 | 0.0 | 0.0 | 0.00 | 0.01 | 0.01 | 62 | 1005.6 | |
| 20260508022016 | 47 | 0.0 | 0.0 | 0.00 | 0.01 | 0.01 | 62 | 1005.6 | |
| 20260508021517 | 47 | 0.0 | 0.0 | 0.00 | 0.01 | 0.01 | 63 | 1005.6 | |
| 20260508021017 | 46 | 0.0 | 0.0 | 0.00 | 0.01 | 0.01 | 63 | 1005.7 | |
| 20260508020516 | 46 | 0.0 | 0.0 | 0.00 | 0.01 | 0.01 | 64 | 1005.6 | |
| 20260508020016 | 47 | 0.0 | 0.0 | 0.00 | 0.01 | 0.01 | 63 | 1005.6 | |
| 20260508015516 | 47 | 0.0 | 0.0 | 0.00 | 0.01 | 0.01 | 64 | 1005.6 | |
| 20260508015016 | 47 | 0.0 | 0.0 | 0.00 | 0.01 | 0.01 | 64 | 1005.6 | |
| 20260508014517 | 47 | 0.0 | 0.0 | 0.00 | 0.01 | 0.01 | 65 | 1005.5 | |
| 20260508014016 | 48 | 0.0 | 0.0 | 0.00 | 0.01 | 0.01 | 63 | 1005.4 | |
| 20260508013517 | 48 | 0.0 | 0.0 | 0.00 | 0.01 | 0.01 | 64 | 1005.3 | |
| 20260508013016 | 49 | 0.0 | 0.0 | 0.00 | 0.01 | 0.01 | 64 | 1005.2 | |
| 20260508012516 | 49 | 0.0 | 0.0 | 0.00 | 0.01 | 0.01 | 63 | 1005.1 | |
| 20260508012016 | 50 | 0.0 | 0.0 | 0.00 | 0.01 | 0.01 | 60 | 1005.0 | |
| 20260508011516 | 50 | 0.0 | 0.0 | 0.00 | 0.01 | 0.01 | 59 | 1004.9 | |
| 20260508011016 | 50 | 0.0 | 0.0 | 0.00 | 0.01 | 0.01 | 56 | 1004.9 | |
| 20260508010516 | 50 | 0.0 | 0.0 | 0.00 | 0.01 | 0.01 | 54 | 1004.8 | |
| 20260508010016 | 50 | 0.0 | 0.0 | 0.00 | 0.01 | 0.01 | 54 | 1004.8 | |
| 20260508005516 | 51 | 0.0 | 0.0 | 0.00 | 0.01 | 0.01 | 53 | 1004.7 | |
| 20260508005016 | 51 | 0.0 | 0.0 | 0.00 | 0.01 | 0.01 | 52 | 1004.6 | |
| 20260508004516 | 52 | 0.0 | 0.0 | 0.00 | 0.01 | 0.01 | 51 | 1004.5 | |
| 20260508004016 | 52 | 0.0 | 0.0 | 0.00 | 0.01 | 0.01 | 50 | 1004.5 | |
| 20260508003516 | 52 | 0.0 | 0.0 | 0.00 | 0.01 | 0.01 | 49 | 1004.4 | |
| 20260508003016 | 53 | 0.0 | 0.0 | 0.00 | 0.01 | 0.01 | 47 | 1004.4 | |
| 20260508002516 | 53 | 0.0 | 0.0 | 0.00 | 0.01 | 0.01 | 46 | 1004.3 | |
| 20260508002016 | 53 | 0.0 | 0.0 | 0.00 | 0.01 | 0.01 | 46 | 1004.4 | |
| 20260508001517 | 54 | 0.0 | 0.0 | 0.00 | 0.01 | 0.01 | 45 | 1004.3 | |
| 20260508001016 | 54 | 0.0 | 0.0 | 0.00 | 0.01 | 0.01 | 45 | 1004.3 | |
| 20260508000516 | 54 | 0.0 | 0.0 | 0.00 | 0.02 | 0.01 | 44 | 1004.2 | |
| 20260508000016 | 55 | 0.0 | 0.0 | 0.00 | 0.02 | 0.01 | 44 | 1004.2 | |
| 20260507235516 | 55 | 0.0 | 0.0 | 0.00 | 0.02 | 0.01 | 43 | 1004.2 | |
| 20260507235016 | 55 | 0.0 | 0.0 | 0.00 | 0.02 | 0.01 | 43 | 1004.1 | |
| 20260507234516 | 55 | 0.0 | 0.0 | 0.00 | 0.02 | 0.01 | 42 | 1004.0 | |
| 20260507234016 | 56 | 0.0 | 0.0 | 0.00 | 0.03 | 0.01 | 42 | 1004.0 | |
| 20260507233516 | 56 | 0.0 | 0.0 | 0.00 | 0.03 | 0.01 | 41 | 1004.0 | |
| 20260507233016 | 56 | 0.0 | 1.0 | 0.00 | 0.03 | 0.01 | 41 | 1004.0 | |
| 20260507232516 | 56 | 259 | 0.0 | 1.0 | 0.00 | 0.03 | 0.01 | 41 | 1004.0 |
| 20260507232036 | 57 | 0.0 | 0.0 | 0.00 | 0.03 | 0.01 | 40 | 1003.9 | |
| 20260507231536 | 57 | 0.0 | 1.0 | 0.00 | 0.04 | 0.01 | 39 | 1003.8 | |
| 20260507231036 | 57 | 1 | 0.0 | 1.0 | 0.00 | 0.04 | 0.01 | 38 | 1003.8 |
| 20260507230516 | 57 | 0.0 | 0.0 | 0.00 | 0.04 | 0.01 | 38 | 1003.8 | |
| 20260507230016 | 58 | 0.0 | 0.0 | 0.00 | 0.05 | 0.01 | 38 | 1003.7 | |
| 20260507225516 | 58 | 0.0 | 0.0 | 0.00 | 0.05 | 0.01 | 38 | 1003.6 |